Starlink 30566

operational
NORAD ID: 58054 Int'l Des: 2023-158 Owner: SPXS Country: US Constellation: starlink
LEOCIRCULAR

关于 Starlink 30566

正在加载描述...

实时位置

正在加载3D地球...

即将过境

高度历史

Altitude vs Time

uPlot chart will show altitude changes over time

两行轨道根数

1 58054U 23158D 25307.54235083 -.00002324 00000-0 -15714-3 0 9992
2 58054 43.0027 355.9404 0000644 243.6675 116.4101 15.02520045114551
Epoch: Nov 3, 2025 • Age: 16 hours

当前状态

高度 558.5 km
速度 7.58 km/s
星下点 7.64°N, 118.48°W
发射日期 Oct 13, 2023
运行时间 2 years
类型 internet

技术详情

分类 Payload
质量 730.00 kg
干质量 700.00 kg
总质量 730.00 kg
长度 0.30 m
直径 4.10 m
跨度 29.00 m
形状 Box + pan
制造商 SPXS
平台类型 Starlink V2M
阶段状态 In Orbit
所有者/国家 SPXS/US

大型星座

Loading constellations...